Location: Baumgartsau
(48.4586°N, 14.0864°E)
Time: 02:04:47
(UTC+00:00)

SL-16 R/B - Pass Details

Date: 06 August 2020
Orbit: 843 x 845 km, 71.0° (Epoch: 26 September)

Event Time Altitude Azimuth Distance (km) Brightness Sun altitude
Rises 20:18:28 0° 336° (NNW) 3,416 6.8 -14.8°
Reaches altitude 10° 20:21:19 10° 348° (NNW) 2,478 5.6 -15.1°
Maximum altitude 20:26:07 27° 46° (NE) 1,570 3.6 -15.7°
Enters shadow 20:29:52 14° 96° (E) 2,170 3.9 -16.1°
